Time,TemperatureF,DewpointF,PressureIn,WindDirection,WindDirectionDegrees,WindSpeedMPH,WindSpeedGustMPH,Humidity,HourlyPrecipIn,Conditions,Clouds,dailyrainin,SolarRadiationWatts/m^2,SoftwareType,DateUTC
2013-08-12 00:01:00,64.0,59.0,29.93,West,275,0.0,1.0,83,0.00,,,0.00,0.000000,,2013-08-12 07:01:00,
2013-08-12 00:12:00,64.0,59.0,29.93,West,275,0.0,1.0,83,0.00,,,0.00,0.000000,,2013-08-12 07:12:00,
2013-08-12 00:22:00,64.0,59.0,29.93,West,275,0.0,0.0,83,0.00,,,0.00,0.000000,,2013-08-12 07:22:00,
2013-08-12 00:33:00,64.0,59.0,29.92,West,275,0.0,0.0,84,0.00,,,0.00,0.000000,,2013-08-12 07:33:00,
2013-08-12 00:43:00,64.0,59.0,29.93,West,275,0.0,1.0,84,0.00,,,0.00,0.000000,,2013-08-12 07:43:00,
2013-08-12 00:52:00,64.0,59.0,29.92,West,275,1.0,2.0,84,0.00,,,0.00,0.000000,,2013-08-12 07:52:00,
2013-08-12 01:02:00,64.0,59.0,29.92,West,275,0.0,1.0,84,0.00,,,0.00,0.000000,,2013-08-12 08:02:00,
2013-08-12 01:22:00,64.0,59.0,29.92,West,275,0.0,0.0,84,0.00,,,0.00,0.000000,,2013-08-12 08:22:00,
2013-08-12 01:33:00,64.0,59.0,29.92,West,275,0.0,2.0,85,0.00,,,0.00,0.000000,,2013-08-12 08:33:00,
2013-08-12 01:43:00,64.0,59.0,29.92,West,275,0.0,3.0,85,0.00,,,0.00,0.000000,,2013-08-12 08:43:00,
2013-08-12 01:53:00,64.0,59.0,29.92,West,275,0.0,1.0,85,0.00,,,0.00,0.000000,,2013-08-12 08:53:00,
2013-08-12 02:01:00,63.0,58.0,29.92,West,275,0.0,1.0,85,0.00,,,0.00,0.000000,,2013-08-12 09:01:00,
2013-08-12 02:11:00,63.0,58.0,29.91,West,275,0.0,0.0,85,0.00,,,0.00,0.000000,,2013-08-12 09:11:00,
2013-08-12 02:22:00,63.0,58.0,29.92,West,275,0.0,1.0,85,0.00,,,0.00,0.000000,,2013-08-12 09:22:00,
2013-08-12 02:32:00,63.0,59.0,29.92,West,275,0.0,1.0,86,0.00,,,0.00,0.000000,,2013-08-12 09:32:00,
2013-08-12 02:42:00,63.0,59.0,29.92,West,275,0.0,1.0,86,0.00,,,0.00,0.000000,,2013-08-12 09:42:00,
2013-08-12 02:52:00,63.0,59.0,29.92,West,275,0.0,0.0,86,0.00,,,0.00,0.000000,,2013-08-12 09:52:00,
2013-08-12 03:01:00,63.0,59.0,29.91,West,275,0.0,1.0,86,0.00,,,0.00,0.000000,,2013-08-12 10:01:00,
2013-08-12 03:11:00,63.0,59.0,29.91,West,275,0.0,1.0,87,0.00,,,0.00,0.000000,,2013-08-12 10:11:00,
2013-08-12 03:21:00,63.0,59.0,29.91,West,275,0.0,1.0,86,0.00,,,0.00,0.000000,,2013-08-12 10:21:00,
2013-08-12 03:32:00,63.0,59.0,29.91,WSW,245,1.0,3.0,88,0.00,,,0.00,0.000000,,2013-08-12 10:32:00,
2013-08-12 03:43:00,63.0,59.0,29.91,SE,136,2.0,5.0,88,0.00,,,0.00,0.000000,,2013-08-12 10:43:00,
2013-08-12 03:52:00,63.0,59.0,29.91,SE,139,3.0,5.0,88,0.00,,,0.00,0.000000,,2013-08-12 10:52:00,
2013-08-12 04:01:00,63.0,59.0,29.91,SE,131,2.0,6.0,88,0.00,,,0.00,0.000000,,2013-08-12 11:01:00,
2013-08-12 04:12:00,63.0,59.0,29.91,ESE,117,3.0,5.0,88,0.00,,,0.00,0.000000,,2013-08-12 11:12:00,
2013-08-12 04:21:00,63.0,59.0,29.91,ESE,121,0.0,3.0,88,0.00,,,0.00,0.000000,,2013-08-12 11:21:00,
2013-08-12 04:32:00,63.0,59.0,29.92,SSE,150,1.0,3.0,88,0.00,,,0.00,0.000000,,2013-08-12 11:32:00,
2013-08-12 04:42:00,63.0,59.0,29.91,SSE,161,2.0,3.0,88,0.00,,,0.00,0.000000,,2013-08-12 11:42:00,
2013-08-12 04:52:00,63.0,59.0,29.91,South,173,3.0,6.0,87,0.00,,,0.00,0.000000,,2013-08-12 11:52:00,
2013-08-12 05:01:00,63.0,59.0,29.91,South,172,2.0,3.0,87,0.00,,,0.00,0.000000,,2013-08-12 12:01:00,
2013-08-12 05:11:00,63.0,59.0,29.92,SSE,158,1.0,5.0,87,0.00,,,0.00,0.000000,,2013-08-12 12:11:00,
2013-08-12 05:22:00,63.0,59.0,29.92,SE,144,0.0,5.0,87,0.00,,,0.00,0.000000,,2013-08-12 12:22:00,
2013-08-12 05:32:00,63.0,59.0,29.92,SE,132,2.0,3.0,88,0.00,,,0.00,0.000000,,2013-08-12 12:32:00,
2013-08-12 05:42:00,63.0,59.0,29.92,ESE,116,1.0,3.0,87,0.00,,,0.00,0.000000,,2013-08-12 12:42:00,
2013-08-12 05:52:00,63.0,59.0,29.93,ESE,114,2.0,3.0,87,0.00,,,0.00,0.000000,,2013-08-12 12:52:00,
2013-08-12 06:01:00,63.0,59.0,29.93,SSE,165,2.0,5.0,87,0.00,,,0.00,0.000000,,2013-08-12 13:01:00,
2013-08-12 06:43:00,63.0,59.0,29.94,South,175,2.0,5.0,86,0.00,,,0.00,0.000000,,2013-08-12 13:43:00,
2013-08-12 06:53:00,63.0,59.0,29.94,South,175,1.0,3.0,86,0.00,,,0.00,5.000000,,2013-08-12 13:53:00,
2013-08-12 07:11:00,63.0,59.0,29.94,South,175,1.0,3.0,86,0.00,,,0.00,14.000000,,2013-08-12 14:11:00,
2013-08-12 07:22:00,63.0,59.0,29.95,South,175,2.0,5.0,86,0.00,,,0.00,23.000000,,2013-08-12 14:22:00,
2013-08-12 07:32:00,64.0,60.0,29.95,South,175,0.0,3.0,86,0.00,,,0.00,26.000000,,2013-08-12 14:32:00,
2013-08-12 07:42:00,64.0,59.0,29.95,South,175,0.0,2.0,85,0.00,,,0.00,37.000000,,2013-08-12 14:42:00,
2013-08-12 07:52:00,64.0,59.0,29.95,South,175,0.0,1.0,85,0.00,,,0.00,47.000000,,2013-08-12 14:52:00,
2013-08-12 08:01:00,64.0,59.0,29.95,South,175,0.0,2.0,84,0.00,,,0.00,62.000000,,2013-08-12 15:01:00,
2013-08-12 08:43:00,64.0,59.0,29.96,SSE,164,3.0,5.0,83,0.00,,,0.00,134.000000,,2013-08-12 15:43:00,
2013-08-12 08:52:00,65.0,59.0,29.96,South,173,3.0,6.0,82,0.00,,,0.00,172.000000,,2013-08-12 15:52:00,
2013-08-12 09:01:00,65.0,59.0,29.96,South,173,0.0,3.0,82,0.00,,,0.00,288.000000,,2013-08-12 16:01:00,
2013-08-12 09:11:00,66.0,60.0,29.96,South,190,2.0,3.0,80,0.00,,,0.00,316.000000,,2013-08-12 16:11:00,
2013-08-12 09:22:00,66.0,59.0,29.96,SSW,204,2.0,7.0,79,0.00,,,0.00,596.000000,,2013-08-12 16:22:00,
2013-08-12 09:32:00,67.0,60.0,29.96,SE,130,3.0,6.0,77,0.00,,,0.00,533.000000,,2013-08-12 16:32:00,
2013-08-12 09:42:00,68.0,60.0,29.96,SE,132,0.0,5.0,76,0.00,,,0.00,555.000000,,2013-08-12 16:42:00,
2013-08-12 09:52:00,68.0,60.0,29.96,SSE,150,1.0,6.0,75,0.00,,,0.00,557.000000,,2013-08-12 16:52:00,
2013-08-12 10:01:00,68.0,59.0,29.96,SSE,166,2.0,5.0,74,0.00,,,0.00,585.000000,,2013-08-12 17:01:00,
2013-08-12 10:43:00,70.0,61.0,29.97,South,170,2.0,6.0,72,0.00,,,0.00,677.000000,,2013-08-12 17:43:00,
2013-08-12 10:52:00,71.0,61.0,29.97,SSW,205,4.0,8.0,70,0.00,,,0.00,698.000000,,2013-08-12 17:52:00,
2013-08-12 11:01:00,70.0,60.0,29.97,South,170,5.0,8.0,70,0.00,,,0.00,722.000000,,2013-08-12 18:01:00,
2013-08-12 11:11:00,71.0,60.0,29.96,South,182,3.0,7.0,69,0.00,,,0.00,738.000000,,2013-08-12 18:11:00,
2013-08-12 11:22:00,72.0,61.0,29.96,South,185,3.0,7.0,69,0.00,,,0.00,758.000000,,2013-08-12 18:22:00,
2013-08-12 11:32:00,73.0,61.0,29.96,South,169,5.0,6.0,66,0.00,,,0.00,777.000000,,2013-08-12 18:32:00,
2013-08-12 11:43:00,73.0,61.0,29.96,SSW,198,1.0,3.0,66,0.00,,,0.00,789.000000,,2013-08-12 18:43:00,
2013-08-12 11:52:00,74.0,61.0,29.96,SSW,213,2.0,6.0,64,0.00,,,0.00,807.000000,,2013-08-12 18:52:00,
2013-08-12 12:43:00,76.0,61.0,29.93,WNW,282,4.0,10.0,59,0.00,,,0.00,851.000000,,2013-08-12 19:43:00,
2013-08-12 12:52:00,77.0,61.0,29.93,South,186,3.0,7.0,58,0.00,,,0.00,856.000000,,2013-08-12 19:52:00,
2013-08-12 13:11:00,79.0,61.0,29.93,WSW,244,5.0,8.0,55,0.00,,,0.00,858.000000,,2013-08-12 20:11:00,
2013-08-12 13:21:00,79.0,61.0,29.92,West,280,4.0,8.0,55,0.00,,,0.00,861.000000,,2013-08-12 20:21:00,
2013-08-12 13:32:00,79.0,61.0,29.92,SSW,206,5.0,10.0,54,0.00,,,0.00,858.000000,,2013-08-12 20:32:00,
2013-08-12 13:42:00,80.0,62.0,29.92,SSW,210,4.0,7.0,55,0.00,,,0.00,856.000000,,2013-08-12 20:42:00,
2013-08-12 13:52:00,80.0,62.0,29.91,SW,214,6.0,12.0,54,0.00,,,0.00,851.000000,,2013-08-12 20:52:00,
2013-08-12 14:01:00,80.0,61.0,29.91,West,265,4.0,9.0,53,0.00,,,0.00,842.000000,,2013-08-12 21:01:00,
2013-08-12 14:12:00,80.0,62.0,29.91,SW,220,5.0,9.0,54,0.00,,,0.00,831.000000,,2013-08-12 21:12:00,
2013-08-12 14:22:00,80.0,62.0,29.90,SW,221,4.0,9.0,54,0.00,,,0.00,724.000000,,2013-08-12 21:22:00,
2013-08-12 14:32:00,81.0,63.0,29.90,SSW,194,6.0,8.0,54,0.00,,,0.00,814.000000,,2013-08-12 21:32:00,
2013-08-12 14:43:00,79.0,61.0,29.90,SSW,193,6.0,12.0,55,0.00,,,0.00,798.000000,,2013-08-12 21:43:00,
2013-08-12 14:52:00,80.0,62.0,29.90,SW,216,7.0,12.0,55,0.00,,,0.00,782.000000,,2013-08-12 21:52:00,
2013-08-12 15:01:00,80.0,62.0,29.90,SSW,200,6.0,12.0,54,0.00,,,0.00,765.000000,,2013-08-12 22:01:00,
2013-08-12 15:11:00,79.0,62.0,29.90,SSW,209,5.0,12.0,57,0.00,,,0.00,752.000000,,2013-08-12 22:11:00,
2013-08-12 15:21:00,78.0,62.0,29.90,SSW,197,6.0,13.0,57,0.00,,,0.00,737.000000,,2013-08-12 22:21:00,
2013-08-12 15:32:00,78.0,62.0,29.89,SSW,201,5.0,9.0,57,0.00,,,0.00,715.000000,,2013-08-12 22:32:00,
2013-08-12 15:43:00,78.0,62.0,29.90,SSW,198,5.0,12.0,58,0.00,,,0.00,691.000000,,2013-08-12 22:43:00,
2013-08-12 15:53:00,78.0,62.0,29.89,SW,235,4.0,12.0,58,0.00,,,0.00,671.000000,,2013-08-12 22:53:00,
2013-08-12 16:01:00,79.0,62.0,29.89,SSW,204,5.0,12.0,57,0.00,,,0.00,647.000000,,2013-08-12 23:01:00,
2013-08-12 16:11:00,79.0,62.0,29.88,South,179,6.0,12.0,56,0.00,,,0.00,621.000000,,2013-08-12 23:11:00,
2013-08-12 16:21:00,80.0,63.0,29.88,SW,234,6.0,9.0,56,0.00,,,0.00,599.000000,,2013-08-12 23:21:00,
2013-08-12 16:53:00,79.0,61.0,29.88,WSW,243,6.0,12.0,55,0.00,,,0.00,,,2013-08-12 23:53:00,
2013-08-12 17:12:00,79.0,62.0,29.87,West,279,9.0,12.0,56,0.00,,,0.00,,,2013-08-13 00:12:00,
2013-08-12 17:23:00,79.0,61.0,29.87,WNW,294,6.0,9.0,55,0.00,,,0.00,,,2013-08-13 00:23:00,
2013-08-12 17:45:00,78.0,62.0,29.87,WSW,244,5.0,12.0,57,0.00,,,0.00,,,2013-08-13 00:45:00,
2013-08-12 17:53:00,78.0,62.0,29.87,West,276,5.0,9.0,58,0.00,,,0.00,,,2013-08-13 00:53:00,
2013-08-12 18:12:00,77.0,62.0,29.88,WSW,244,5.0,10.0,59,0.00,,,0.00,,,2013-08-13 01:12:00,
2013-08-12 18:23:00,76.0,62.0,29.88,West,269,4.0,9.0,61,0.00,,,0.00,,,2013-08-13 01:23:00,
2013-08-12 18:41:00,76.0,62.0,29.88,WSW,258,5.0,10.0,62,0.00,,,0.00,,,2013-08-13 01:41:00,
2013-08-12 18:55:00,75.0,62.0,29.88,WNW,287,6.0,8.0,63,0.00,,,0.00,,,2013-08-13 01:55:00,
2013-08-12 19:21:00,74.0,61.0,29.88,WNW,285,5.0,8.0,65,0.00,,,0.00,,,2013-08-13 02:21:00,
2013-08-12 19:42:00,73.0,61.0,29.88,WNW,295,7.0,12.0,67,0.00,,,0.00,,,2013-08-13 02:42:00,
2013-08-12 19:52:00,70.0,61.0,29.89,West,270,6.0,10.0,73,0.00,,,0.00,,,2013-08-13 02:52:00,
2013-08-12 20:22:00,68.0,61.0,29.90,WNW,286,6.0,10.0,77,0.00,,,0.00,,,2013-08-13 03:22:00,
2013-08-12 20:54:00,67.0,61.0,29.91,WNW,296,5.0,7.0,80,0.00,,,0.00,,,2013-08-13 03:54:00,
2013-08-12 21:12:00,66.0,60.0,29.91,WNW,299,5.0,7.0,80,0.00,,,0.00,,,2013-08-13 04:12:00,
2013-08-12 21:23:00,65.0,59.0,29.92,WNW,295,3.0,6.0,82,0.00,,,0.00,,,2013-08-13 04:23:00,
2013-08-12 21:53:00,65.0,60.0,29.93,West,269,3.0,5.0,83,0.00,,,0.00,,,2013-08-13 04:53:00,
2013-08-12 22:12:00,65.0,60.0,29.93,West,269,2.0,5.0,83,0.00,,,0.00,,,2013-08-13 05:12:00,
2013-08-12 22:21:00,65.0,60.0,29.93,West,269,2.0,3.0,84,0.00,,,0.00,,,2013-08-13 05:21:00,
2013-08-12 22:52:00,65.0,60.0,29.93,West,269,0.0,3.0,84,0.00,,,0.00,,,2013-08-13 05:52:00,
2013-08-12 23:21:00,65.0,60.0,29.93,West,269,1.0,2.0,85,0.00,,,0.00,,,2013-08-13 06:21:00,
2013-08-12 23:52:00,64.0,59.0,29.93,West,269,0.0,2.0,85,0.00,,,0.00,,,2013-08-13 06:52:00,